COSMOS 2251 DEB, 34122

Orbit data source: Space-Track

COSMOS 2251 DEB, 34122 is space debris in LEO originally from a launch on Wed, 16 Jun 1993 UTC launched from the Plesetsk Missile And Space Complex (PKMTR). The debris from Iridium 33, an American commercial communications satellite, has been tracked extensively since its accidental collision with the defunct Russian satellite Cosmos 2251 in 2009. This event, occurring at high speed in low Earth orbit (LEO), generated thousands of pieces of space debris, significantly increasing the risk of further collisions. The Iridium 33 debris cloud has impacted space traffic management and orbital debris mitigation strategies, making it a subject of ongoing study in space situational awareness.

Loading next visibility...
Identifier
34122, 1993-036KT
Orbit
LEO
Country
Flag of CISCIS
Related business
Manufacturer
Unknown
Mission
Spacecraft
Bus & Motor
Unknown
Mass
Unknown
Launch date (UTC)
1993-06-16 (33 years ago)
Launch vehicle
Unknown
Launch site
Plesetsk Missile And Space Complex (PKMTR)
Object type
Payload
Rocket body
Debris
Shape & HBR
Unknown shape, 0.2 m
Radar Cross Section
Small (<0.1 m²)

Expand to show TLE details & history
Last TLE update: 14 hours ago

TLE from 14 hours ago
0 COSMOS 2251 DEB
1 34122U 93036KT  26035.37487538  .00008388  00000-0  14562-2 0  9991
2 34122  74.0374  15.3770 0085541 259.2996 251.9299 14.65928284894701
Epoch: 2026-02-04T08:59Z
TLE epoch observation values (Epoch: 2026-02-04T08:59:49.232Z)
Latitude
28.49901°
Longitude
-83.00629°
Altitude
696.507 km
Speed
7.5 km/s
True Right ascension
12h 25m 57s
True Declination
28° 21' 14"
Sunlit
Object was in full shadow at epoch
Visualization orbit readout
Latitude
Unknown
Longitude
Unknown
Altitude
Unknown
Speed
Unknown
Apparent Right ascension
Unknown
Apparent Declination
Unknown
Sunlit
N/A
Visualization observer readout
Local Sidereal Time
01:01:11
Azimuth
Unknown
Elevation
Unknown
Doppler factor
Unknown
Orbital elements
Apogee altitude
731.992 km
Perigee altitude
611.382 km
Semi-major axis
7,049.824 km
Eccentricity
0.00855
Inclination
74.0374°
RAAN
15.377°
Arg. of periapsis
259.2996°
True anomaly
251.00114°
Mean anomaly
251.9299°
Eccentric anomaly
251.46521°
Mean motion
3.6667 °/min
Orbital period
98.18 mins
BSTAR
0.0014562
Loading maneuver chart data...
Computing Atmospheric mass density...

Documentation

Showing up to 5 results
|